Tracking 19145 objects as of 26-Apr-2018
HD Live streaming from Space Station
objects crossing your sky now

FENGYUN 1C DEB

Track FENGYUN 1C DEB now!
10-day predictions


NORAD ID: 31224
Int'l Code: 1999-025BLE
Perigee: 697.8 km
Apogee: 942.1 km
Inclination: 98.6 °
Period: 101.1 minutes
Semi major axis: 7190 km
RCS: 0.0105 m2 (small)
Launch date: May 10, 1999
Source: People's Republic of China (PRC)
Launch site: Taiyaun Space Center, China (TSC)

Note: This is SATELLITE DEBRIS
aabbcc
Your satellite tracking list
Your tracking list is empty




NASA's NSSDC Master Catalog

Two Line Element Set (TLE):
1 31224U 99025BLE 18105.96867191  .00000131  00000-0  65684-4 0  9997
2 31224  98.5960 166.1397 0169843  78.6224  44.5681 14.23720971574116
Source of the keplerian elements: AFSPC